Location: Unnamed
(51.8936°N, 11.0665°E)
Time: 02:33:21
(UTC+02:00)

KAITUO 1B - Pass Details

Date: 28 September 2021
Orbit: 488 x 510 km, 97.4° (Epoch: 25 October)

Event Time Altitude Azimuth Distance (km) Brightness Sun altitude
Rises 19:34:04 0° 195° (SSW) 2,594 ? -6.1°
Reaches altitude 10° 19:36:25 10° 209° (SSW) 1,711 ? -6.5°
Maximum altitude 19:39:30 25° 266° (W) 1,048 ? -6.9°
Drops below altitude 10° 19:42:37 10° 323° (NW) 1,714 ? -7.4°
Sets 19:44:58 0° 337° (NNW) 2,599 ? -7.8°
